Location: Newark
(33.6439°N, 114.9881°W)
Time: 03:14:26
(UTC+00:00)

N. Korean satellite - Visible Passes

Search period start: 21 March 2019 00:00
Search period end: 31 March 2019 00:00
Orbit: 456 x 510 km, 97.2° (Epoch: 20 March)

Date Brightness Start Highest point End Pass type
(mag) Time Alt. Az. Time Alt. Az. Time Alt. Az.
21 Mar 9.8 13:00:58 10° NE 13:03:32 18° E 13:06:06 10° SE visible
25 Mar 9.9 12:55:23 10° NE 12:57:39 16° E 12:59:55 10° SE visible
29 Mar 10.0 12:49:50 10° ENE 12:51:43 14° E 12:53:36 10° SE visible
